User: anonymous   Login
Location: Standeford and Andreas Observatories
(44.1397°N, 93.9969°W)
Time: 12:53:54
(UTC-05:00)
Language:

Cosmos 1500 Rocket - Orbit

View from above orbital plane
View from above orbital plane
View from above satellite
View from above satellite

Ground track
Ground track

The orbit data is extracted from the following two-line orbital elements,

1 14373U 83099B   16206.53862439  .00000099  00000-0  91293-5 0  9999
2 14373  82.5399 190.7292 0019060 224.7212 275.1169 14.83621021772298
Epoch (UTC): 24 July 2016 12:55:37
Eccentricity: 0.0019060
inclination: 82.5399°
perigee height: 604 km
apogee height: 631 km
right ascension of ascending node: 190.7292°
argument of perigee: 224.7212°
revolutions per day: 14.83621021
mean anomaly at epoch: 275.1169°
orbit number at epoch: 77229

The dashed part of the orbit path shows where the satellite is in the earth's shadow,  

DLR